Miscellaneous Local Product
Issued by NWS North Platte, NE

Home | Current Version | Previous Version | Graphics & Text | Print | Product List | Glossary On
Versions: 1 2 3 4 5 6 7 8 9 10 11 12 13 14 15 16 17 18 19 20 21 22 23 24 25 26 27 28 29 30 31 32 33 34 35 36 37 38 39 40 41 42 43 44 45 46 47 48 49 50
000
AXUS43 KLBF 250710
MISLBF


WESTERN AND NORTH CENTRAL NEBRASKA HOURLY WEATHER ROUNDUP
NATIONAL WEATHER SERVICE NORTH PLATTE NE
100 AM CST SUN FEB 25 2018

NOTE: "FAIR" INDICATES FEW OR NO CLOUDS BELOW 12,000 FEET WITH NO
SIGNIFICANT WEATHER AND/OR OBSTRUCTIONS TO VISIBILITY.

NOTE: STATIONS NOT REPORTING VARIABLES SUCH AS SKY/WEATHER OR
PRESSURE ARE PROVIDED BY RAWS AND APRS NETWORKS AND ARE NOT UNDER
NATIONAL WEATHER SERVICE QUALITY CONTROL.

...OBSERVATIONS IN AND NEAR THE EASTERN PANHANDLE OF NEBRASKA...

CITY           SKY/WX    TMP DP  RH WIND       PRES   REMARKS
PINE RIDGE     PTCLDY    16   8  71 SW6       29.78R WCI   7
GORDON         FAIR      17   6  62 W10       29.76R WCI   4
CHADRON        PTCLDY    11   3  70 CALM      29.79R
ALLIANCE       MOCLDY    17   9  70 W13       29.78S WCI   4
SIDNEY         CLOUDY    24   9  52 W13       29.83S WCI  12
CRESCENT LAKE    N/A     23  12  62 W7          N/A  WCI  15
$$

...OBSERVATIONS IN NORTHERN NEBRASKA AND FAR SOUTHERN SOUTH DAKOTA...

CITY           SKY/WX    TMP DP  RH WIND       PRES   REMARKS
WINNER         FAIR      22  10  60 W12       29.72S WCI  10
VALENTINE      CLEAR     13   6  74 W9        29.76S WCI   1
AINSWORTH      CLEAR     19  12  74 W14       29.76S WCI   5
O`NEILL        CLEAR     19  11  73 W10       29.78S WCI   7
THEDFORD       CLEAR     20  11  68 W8G18     29.80S WCI  10
BROKEN BOW     CLEAR     21   8  57 W9        29.83S WCI  11
ORD            CLEAR     19  11  70 W10       29.83R WCI   7
ALBION         CLEAR     22  13  70 CALM      29.84R
VALENTINE NWR    N/A     18   9  67 SW9         N/A  WCI   7
HALSEY           N/A     15   7  71 W6          N/A  WCI   6
BUTTE            N/A     17  11  78 SW12        N/A  WCI   4
CHAMBERS         N/A     17   7  64 W3          N/A
EWING            N/A     18  12  76 W7          N/A  WCI   9
$$

...OBSERVATIONS IN SOUTHWEST NEBRASKA AND FAR NORTHEAST COLORADO...

CITY           SKY/WX    TMP DP  RH WIND       PRES   REMARKS
WRAY           CLOUDY    28  18  64 SW6       29.88F WCI  22
HOLYOKE        FAIR      32  12  43 NW10G18   29.85S WCI  24
IMPERIAL       MOCLDY    25  13  60 W9        29.87R WCI  15
OGALLALA       PTCLDY    17  12  78 CALM      29.85R
NORTH PLATTE   CLEAR      9   5  84 NW7       29.86S WCI  -2
MCCOOK         PTCLDY    22  16  78 SW8       29.90R WCI  12
LEXINGTON      CLEAR     19  14  80 NW6       29.86S WCI  11
STAPLETON        N/A     15   9  76 CALM        N/A
$$

...OBSERVATIONS IN CENTRAL LINCOLN COUNTY AREA...

CITY           SKY/WX    TMP DP  RH WIND       PRES   REMARKS
N.P. AIRPORT   CLEAR      9   5  84 NW7       29.86S WCI  -2
N.P. DOWNTOWN    N/A     13   9  83 CALM        N/A
N.P. SOUTHEAST   N/A     16   9  74 CALM        N/A
N.P. HILLCREST   N/A     16  11  80 NW7         N/A  WCI   6
$$

...OBSERVATIONS ACROSS THE ROCKIES AND WESTERN HIGH PLAINS...

CITY           SKY/WX    TMP DP  RH WIND       PRES   REMARKS
RAPID CITY     PTCLDY    12   2  64 S6        29.70S WCI   3
SCOTTSBLUFF    CLOUDY    29  13  51 W10       29.81R WCI  20
CHEYENNE       MOCLDY    20   4  50 W18       29.77F WCI   5
DENVER         PTCLDY    15   6  67 S12       29.84S WCI   2
BERTHOUD PASS  CLOUDY    -6 -15  65 W33       29.60F HAZE    WCI -35
COPPER MTN     CLOUDY     5  -4  66 W15G30    29.67F HAZE    WCI -13
MONARCH PASS   CLOUDY     1  -4  78 SW28G35   29.81S WCI -23
ASPEN          FLURRIES  13   6  74 CALM      29.85S
LARAMIE        CLOUDY    13   4  67 SW21      29.75F WCI  -5
CASPER         CLOUDY    18  10  71 SW20      29.77S WCI   2
$$

...OBSERVATIONS ACROSS THE NORTHERN PLAINS...

CITY           SKY/WX    TMP DP  RH WIND       PRES   REMARKS
BISMARCK       CLEAR     14   9  80 W12       29.58S WCI   0
FARGO          CLOUDY    13  12  96 W12       29.54S WCI  -1
PIERRE         CLEAR     18  10  71 W18G29    29.67F WCI   2
SIOUX FALLS    PTCLDY    12   8  84 W8        29.70R WCI   0
$$

...OBSERVATIONS ACROSS THE CENTRAL AND SOUTHERN PLAINS...

CITY           SKY/WX    TMP DP  RH WIND       PRES   REMARKS
OMAHA          CLEAR     26  19  74 W14       29.86R WCI  14
GRAND ISLAND   CLEAR     24  15  68 W13       29.87R WCI  12
KANSAS CITY    CLEAR     31  27  85 W7        29.94R WCI  24
WICHITA        CLEAR     28  25  88 NW8       30.00S WCI  20
DODGE CITY     CLOUDY    24   7  48 E5        29.98R WCI  18
OKLAHOMA CITY  CLEAR     33  31  92 SE6       30.01S WCI  28
DALLAS         PTCLDY    48  43  82 N5        30.01R
AMARILLO       CLEAR     27   2  34 S10       29.95S WCI  17
$$




USA.gov is the U.S. government's official web portal to all federal, state and local government web resources and services.